Bobr

Belarus     54˚20′30″N   29˚16′28″E
temp.,
°C
wind,
m/s
gust,
m/s
humid.,
%
clouds,
%
prec.,
mm/h
press.,
hPa
HPBL,
m
3 december, thu
thu300:00−4˚se379398 0.2 1028475
03:00−4˚sse379296 0.3 1027437
06:00−4˚se479395 0.1 1026419
09:00−4˚sse489294 0.3 1026443
12:00−2˚sse598795 0.1 1026560
15:00−1˚sse488495 0.2 1025767
18:00−2˚sse599095 0.0 1025686
21:00−2˚se6119097 0.1 1024546
4 december, fri
fri400:00−1˚sse51191100 0.1 1024563
03:00se5119099 0.1 1023573
06:00se61293100 0.0 1022526
09:00+2˚sse61393100 0.0 1022830
12:00+3˚se61389100 0.0 1022860
15:00+3˚se61389100 0.0 1022857
18:00+2˚sse7138999 0.0 1022891
21:00+2˚sse6138999 0.0 1023742
5 december, sat
sat500:00+1˚sse71294100 0.0 1024740
03:00+1˚sse61292100 0.0 1025728
06:00+1˚sse61195100 0.0 1025816
09:00+1˚sse51292100 0.3 1026745
12:00+2˚se61389100 0.2 1027706
15:00+2˚se61388100 0.2 1027702
18:00+1˚se6128998 0.0 1027707
21:00+1˚sse6128899 0.0 1028819
6 december, sun
sun600:00+1˚se61288100 0.0 1029740
03:00se6128799 0.0 1030709
06:00−2˚se6128797 0.0 1030581
09:00−3˚se6138079 0.0 1031476
12:00−2˚se613660 0.0 1031495
15:00−1˚se613570 0.0 1030550
18:00−3˚se614600 0.0 1030482
21:00−3˚se614600 0.0 1031482
7 december, mon
mon700:00−4˚se614600 0.0 1031501
03:00−4˚se614580 0.0 1031505
06:00−4˚se614590 0.0 1030503
09:00−5˚se614620 0.0 1030462
12:00−4˚se613660 0.0 1030500
15:00−3˚se713620 0.0 1029536
18:00−4˚se6146212 0.0 1029511
21:00−5˚se6136616 0.0 1030487